This demonstration page uses our WeatherBlox Daily Observations layout. Learn more.

Left ArrowRight Arrow

39.12711, -84.51439

Hourly Observations for September 18, 2016

Temp ( °F °C ) Dew Point ( °F °C ) Humidity (%) Winds ( mph kmh ) Pressure ( in mb ) Visibility ( mi km ) Precip ( " mm )
12:44 am 00:44 Cloudy 70 21 70 21 100 100 SSW 3 6 30.00 1016 9 14 0.00 0.00
12:53 am 00:53 Cloudy 70 21.1 70 21.1 100 100 Calm 30.02 1017 9 14 0.00 0.00
1:53 am 01:53 Cloudy 71 21.7 70 21.1 96 96 Calm 30.01 1016 10 16 0.00 0.00
2:53 am 02:53 Cloudy 71 21.7 71 21.7 100 100 Calm 30.00 1016 10 16 0.00 0.00
3:53 am 03:53 Cloudy 71 21.7 71 21.7 100 100 Calm 29.98 1015 9 14 0.00 0.00
4:53 am 04:53 Cloudy 72 22.2 71 21.7 97 97 Calm 29.98 1015 10 16 0.00 0.00
5:43 am 05:43 Cloudy 71 21.7 71 21.7 100 100 S 3 6 29.97 1015 9 14 0.00 0.00
5:53 am 05:53 Cloudy 71 21.7 71 21.7 100 100 SSW 3 6 30.00 1016 9 14 0.00 0.00
6:23 am 06:23 Mostly Cloudy 70 21.1 70 21.1 100 100 Calm 29.97 1015 8 13 0.00 0.00
6:28 am 06:28 Mostly Cloudy 72 22 72 22 100 100 Calm 29.97 1015 8 13 0.00 0.00
6:41 am 06:41 Cloudy 70 21.1 70 21.1 100 100 Calm 29.97 1015 7 11 0.00 0.00
6:53 am 06:53 Cloudy 71 21.7 71 21.7 100 100 Calm 29.99 1016 7 11 0.00 0.00
7:23 am 07:23 Cloudy 70 21.1 70 21.1 100 100 Calm 29.97 1015 7 11 0.00 0.00
7:53 am 07:53 Partly Cloudy 69 20.6 69 20.6 100 100 Calm 30.00 1016 7 11 0.00 0.00
8:14 am 08:14 Mostly Cloudy with Mist and Fog 68 20 68 20 100 100 Calm 29.97 1015 4 6 0.00 0.00
8:26 am 08:26 Partly Cloudy 70 21 70 21 100 100 Calm 29.97 1015 7 11 0.00 0.00
8:37 am 08:37 Mostly Cloudy 70 21.1 70 21.1 100 100 Calm 30.00 1016 7 11 0.00 0.00
8:53 am 08:53 Mostly Cloudy with Mist and Fog 71 21.7 71 21.7 100 100 Calm 30.00 1016 6 10 0.00 0.00
9:37 am 09:37 Mostly Cloudy 74 23.3 70 21.1 88 88 ENE 3 6 29.97 1015 8 13 0.00 0.00
9:53 am 09:53 Mostly Cloudy 74 23.3 70 21.1 88 88 Calm 30.00 1016 9 14 0.00 0.00
10:53 am 10:53 Mostly Cloudy 75 23.9 70 21.1 84 84 ENE 5 7 30.01 1016 10 16 0.00 0.00
11:53 am 11:53 Mostly Cloudy 76 24.4 70 21.1 82 82 Calm 30.01 1016 10 16 0.00 0.00
12:53 pm 12:53 Mostly Cloudy 80 26.7 69 20.6 69 69 W 5 7 29.99 1016 10 16 0.00 0.00
1:53 pm 13:53 Mostly Cloudy 81 27.2 69 20.6 67 67 SSE 3 6 29.98 1015 10 16 0.00 0.00
2:53 pm 14:53 Partly Cloudy 82 27.8 68 20 63 63 Calm 29.96 1015 10 16 0.00 0.00
3:53 pm 15:53 Partly Cloudy 81 27.2 69 20.6 67 67 S 5 7 29.94 1014 10 16 0.00 0.00
4:53 pm 16:53 Partly Cloudy 81 27.2 69 20.6 67 67 S 5 7 29.92 1013 10 16 0.00 0.00
5:53 pm 17:53 Mostly Sunny 80 26.7 71 21.7 74 74 SSE 5 7 29.92 1013 10 16 0.00 0.00
6:53 pm 18:53 Mostly Sunny 78 25.6 71 21.7 79 79 Calm 29.93 1013 10 16 0.00 0.00
7:53 pm 19:53 Cloudy 75 23.9 71 21.7 88 88 Calm 29.94 1014 9 14 0.00 0.00
8:53 pm 20:53 Mostly Cloudy 72 22.2 71 21.7 97 97 S 3 6 29.97 1015 9 14 0.00 0.00
9:53 pm 21:53 Partly Cloudy 72 22.2 71 21.7 97 97 VRB 3 6 29.97 1015 8 13 0.00 0.00
10:53 pm 22:53 Mostly Cloudy 74 23.3 70 21.1 88 88 Calm 29.98 1015 10 16 0.00 0.00
11:53 pm 23:53 Clear 71 21.7 70 21.1 96 96 Calm 29.99 1016 9 14 0.00 0.00

Powered by AerisWeather